Bat Cave, NC

8:57 AM EDT on July 29, 2016 (GMT -0400)
Asheville Regional

Weather History for KAVL - August, 2014

Change the Weather History Date:

Thursday, August 7, 2014

  Actual Average Record
Temperature  
Mean Temperature 74 °F 74 °F  
Max Temperature 84 °F 84 °F 95 °F (1935)
Min Temperature 63 °F 64 °F 50 °F (2004)
Degree Days  
Heating Degree Days 0 0  
Month to date heating degree days 0 0  
Since 1 June heating degree days 2 14  
Since 1 July heating degree days 2 0  
Cooling Degree Days 9 9  
Month to date cooling degree days 47 63  
Year to date cooling degree days 562 573  
Since 1 June cooling degree days 481 515  
Growing Degree Days 24 (Base 50)    
Moisture  
Dew Point 62 °F    
Average Humidity 68    
Maximum Humidity 93    
Minimum Humidity 43    
Precipitation  
Precipitation 0.00 in 0.14 in 2.27 in (1978)
Month to date precipitation 0.20 0.99  
Year to date precipitation 27.03 28.20  
Snow  
Snow 0.00 in 0.00 in 0.00 in ()
Month to date snowfall 0.0 0.0  
Since 1 June snowfall 0.0 0.0  
Since 1 July snowfall 0.0 0.0  
Snow Depth 0.00 in    
Sea Level Pressure  
Sea Level Pressure 30.02 in    
Wind  
Wind Speed 4 mph (NNW)    
Max Wind Speed 15 mph    
Max Gust Speed 21 mph    
Visibility 8 miles    
Events      
T = Trace of Precipitation, MM = Missing Value Source: NWS Daily Summary

Daily Weather History Graph

Daily Weather History Graph

Search for Another Location

Airport or City:

Trip Planner

Search our weather history database for the weather conditions in past years. The results will help you decide how hot, cold, wet, or windy it might be!

Date:

Astronomy

Aug. 07, 2014 Rise Set
Actual Time 6:43 AM EDT 8:27 PM EDT
Civil Twilight 6:15 AM EDT 8:55 PM EDT
Nautical Twilight 5:42 AM EDT 9:28 PM EDT
Astronomical Twilight 5:07 AM EDT 10:03 PM EDT
Moon 5:41 PM EDT (8/7) 3:14 AM EDT (8/7)
Length of Visible Light 14h 39m
Length of Day
13h 44m
Waxing Gibbous, 86% of the Moon is Illuminated
Aug 7
Waxing Gibbous
Aug 10
Full
Aug 17
Last Quarter
Aug 25
New
Sep 2
First Quarter

Hourly Weather History & Observations

Time (EDT) Temp. Heat Index Dew Point Humidity Pressure Visibility Wind Dir Wind Speed Gust Speed Precip Events Conditions
12:54 AM 68.0 °F - 64.0 °F 87% 30.01 in 10.0 mi WSW 3.5 mph - N/A   Mostly Cloudy
1:54 AM 66.9 °F - 64.0 °F 90% 30.00 in 9.0 mi Calm Calm - N/A   Clear
2:54 AM 66.0 °F - 63.0 °F 90% 29.99 in 8.0 mi Calm Calm - N/A   Scattered Clouds
3:54 AM 66.0 °F - 63.0 °F 90% 29.98 in 9.0 mi NNW 5.8 mph - N/A   Scattered Clouds
4:54 AM 64.0 °F - 63.0 °F 96% 29.99 in 6.0 mi Calm Calm - N/A   Clear
5:54 AM 63.0 °F - 61.0 °F 93% 29.99 in 6.0 mi Calm Calm - N/A   Clear
6:33 AM 64.0 °F - 62.1 °F 93% 30.08 in 6.0 mi Calm Calm - N/A   Scattered Clouds
6:38 AM 64.0 °F - 62.1 °F 93% 30.08 in 7.0 mi Calm Calm - N/A   Mostly Cloudy
6:54 AM 63.0 °F - 61.0 °F 93% 30.01 in 5.0 mi Calm Calm - N/A   Overcast
7:52 AM 64.4 °F - 62.6 °F 94% 30.10 in 4.0 mi Calm Calm - N/A   Scattered Clouds
7:54 AM 64.9 °F - 62.1 °F 90% 30.03 in 4.0 mi Calm Calm - N/A   Partly Cloudy
8:54 AM 68.0 °F - 64.0 °F 87% 30.04 in 6.0 mi NW 6.9 mph - N/A   Clear
9:54 AM 70.0 °F - 64.0 °F 81% 30.05 in 9.0 mi NNW 8.1 mph - N/A   Clear
10:54 AM 73.0 °F - 64.9 °F 76% 30.04 in 10.0 mi North 5.8 mph - N/A   Mostly Cloudy
11:54 AM 75.9 °F - 64.0 °F 67% 30.04 in 10.0 mi NNW 8.1 mph - N/A   Clear
12:54 PM 78.1 °F - 64.0 °F 62% 30.04 in 10.0 mi WNW 3.5 mph - N/A   Clear
1:54 PM 82.0 °F 83.0 °F 62.1 °F 51% 30.01 in 10.0 mi North 8.1 mph - N/A   Partly Cloudy
2:54 PM 82.0 °F 82.7 °F 61.0 °F 49% 30.01 in 10.0 mi NNW 8.1 mph - N/A   Clear
3:54 PM 84.0 °F 84.4 °F 61.0 °F 46% 29.99 in 10.0 mi North 10.4 mph - N/A   Clear
4:54 PM 82.9 °F 83.2 °F 60.1 °F 46% 29.99 in 10.0 mi North 11.5 mph - N/A   Clear
5:54 PM 82.9 °F 82.6 °F 57.9 °F 42% 29.99 in 10.0 mi NNW 10.4 mph - N/A   Clear
6:54 PM 80.1 °F 80.6 °F 57.9 °F 47% 29.98 in 10.0 mi North 9.2 mph - N/A   Clear
7:54 PM 77.0 °F - 62.1 °F 60% 30.00 in 10.0 mi WNW 5.8 mph - N/A   Clear
8:54 PM 75.9 °F - 62.1 °F 62% 30.00 in 10.0 mi Calm Calm - N/A   Clear
9:54 PM 73.0 °F - 62.1 °F 68% 30.01 in 10.0 mi Calm Calm - N/A   Clear
10:54 PM 70.0 °F - 64.9 °F 84% 30.04 in 10.0 mi Calm Calm - N/A   Clear
11:54 PM 69.1 °F - 64.0 °F 84% 30.05 in 9.0 mi Calm Calm - N/A   Clear